This demonstration page uses our WeatherBlox Daily Observations layout. Learn more.

Left ArrowRight Arrow

36.17497, -115.13722

Hourly Observations for August 18, 2022

Temp ( °F °C ) Dew Point ( °F °C ) Humidity (%) Winds ( mph kmh ) Pressure ( in mb ) Visibility ( mi km ) Precip ( " mm )
12:53 am 00:53 Clear 90 32.2 60 15.6 37 37 SE 5 7 29.86 1011 10 16 0.00 0.00
1:53 am 01:53 Clear 90 32.2 60 15.6 37 37 NNW 5 7 29.86 1011 10 16 0.00 0.00
2:53 am 02:53 Clear 89 31.7 60 15.6 38 38 W 5 7 29.86 1011 10 16 0.00 0.00
3:53 am 03:53 Clear 88 31.1 60 15.6 39 39 N 3 6 29.86 1011 10 16 0.00 0.00
4:53 am 04:53 Clear 87 30.6 60 15.6 40 40 N 5 7 29.86 1011 10 16 0.00 0.00
5:53 am 05:53 Partly Cloudy 87 30.6 60 15.6 40 40 NNW 3 6 29.88 1012 10 16 0.00 0.00
6:53 am 06:53 Sunny 87 30.6 59 15 39 39 NNW 5 7 29.90 1013 10 16 0.00 0.00
7:53 am 07:53 Sunny 89 31.7 60 15.6 38 38 NNW 6 9 29.91 1013 10 16 0.00 0.00
8:53 am 08:53 Sunny 92 33.3 59 15 33 33 Calm 29.91 1013 10 16 0.00 0.00
9:53 am 09:53 Sunny 93 33.9 60 15.6 34 34 VRB 3 6 29.91 1013 10 16 0.00 0.00
10:53 am 10:53 Mostly Cloudy 96 35.6 61 16.1 31 31 ESE 8 13 29.91 1013 10 16 0.00 0.00
11:53 am 11:53 Sunny 98 36.7 62 16.7 31 31 VRB 6 9 29.89 1012 10 16 0.00 0.00
12:53 pm 12:53 Sunny 98 36.7 62 16.7 31 31 VRB 5 7 29.88 1012 10 16 0.00 0.00
1:53 pm 13:53 Mostly Sunny 98 36.7 61 16.1 30 30 E 6 9 29.85 1011 10 16 0.00 0.00
2:53 pm 14:53 Mostly Cloudy with Light Rain 96 35.6 61 16.1 31 31 NNW 15 24 29.83 1010 10 16 0.01 0.13
3:53 pm 15:53 Sunny 97 36.1 60 15.6 30 30 VRB 3 6 29.82 1010 10 16 0.01 0.13
4:53 pm 16:53 Sunny 97 36.1 62 16.7 32 32 SSE 16 26 29.79 1009 10 16 0.00 0.00
5:53 pm 17:53 Sunny 97 36.1 61 16.1 31 31 undefined N/A 29.79 1009 10 16 0.00 0.00
6:53 pm 18:53 Sunny 97 36.1 59 15 29 29 SE 6 9 29.79 1009 10 16 0.00 0.00
7:53 pm 19:53 Mostly Clear 94 34.4 62 16.7 35 35 SE 9 15 29.81 1010 10 16 0.00 0.00
8:05 pm 20:05 Partly Cloudy with Nearby Thunderstorms 94 34.4 61 16.1 34 34 SSE 7 11 29.68 1005 10 16 0.00 0.00
8:20 pm 20:20 Partly Cloudy 94 34.4 63 17.2 36 36 S 6 9 29.69 1005 10 16 0.00 0.00
8:53 pm 20:53 Mostly Cloudy 92 33.3 64 17.8 40 40 W 12 19 29.84 1011 10 16 0.00 0.00
9:53 pm 21:53 Partly Cloudy 92 33.3 60 15.6 35 35 E 9 15 29.86 1011 10 16 0.00 0.00
10:53 pm 22:53 Clear 92 33.3 58 14.4 32 32 ENE 14 22 29.85 1011 10 16 0.00 0.00
11:29 pm 23:29 Mostly Cloudy with Nearby Thunderstorms 79 26.1 67 19.4 67 67 N 13 20 29.81 1009 10 16 0.03 0.76
11:36 pm 23:36 Partly Cloudy with Thunderstorms 80 26.7 67 19.4 64 64 N 15 24 29.79 1009 10 16 0.03 0.76
11:53 pm 23:53 Mostly Clear with Nearby Thunderstorms 81 27.2 63 17.2 54 54 NNE 18 30 29.88 1012 10 16 0.03 0.76

Powered by AerisWeather